Location: Quedlinburg
(51.7921°N, 11.1414°E)
Time: 07:17:10
(UTC+02:00)

SO-50 - Pass Details

Date: 13 March 2026
Orbit: 567 x 673 km, 64.6° (Epoch: 13 April)

Event Time Altitude Azimuth Distance (km) Brightness Sun altitude
Rises 23:45:39 0° 307° (NW) 3,016 ? -40.2°
Reaches altitude 10° 23:48:35 10° 325° (NW) 2,110 ? -40.3°
Enters shadow 23:49:02 12° 330° (NNW) 1,990 ? -40.3°
